Wind_Speed
17 17 17 17 16 16 16 16 17 17 17 16 16 16 17 18 18 18 18 19 19 19 19 20 20 21 23 24 25 27 28 30 31 33 34 35 36 38 39 41 43 44 46 48
15 16 16 15 15 14 14 14 15 15 15 14 15 16 15 16 17 18 18 19 20 20 21 21 21 22 23 25 26 27 29 30 32 34 35 36 37 38 39 41 43 45 48 50
15 15 15 14 14 14 14 13 13 13 14 15 15 16 16 16 16 18 19 20 20 20 21 22 23 24 25 27 28 29 30 31 33 34 36 37 39 40 41 43 45 47 49 51
14 14 14 14 14 13 14 14 13 12 13 15 17 18 18 17 17 18 19 20 21 22 23 24 25 26 28 29 30 31 32 33 35 36 37 38 40 41 43 45 46 48 50 51
14 14 14 14 14 13 14 15 15 14 15 15 17 19 20 19 19 20 21 22 23 24 25 26 27 29 30 31 32 33 34 34 35 36 38 39 41 42 44 46 48 49 51 53
15 14 14 14 14 15 15 17 17 17 17 17 18 19 21 22 23 23 24 25 25 26 26 26 28 30 32 33 34 34 35 36 37 38 39 41 42 44 45 47 49 50 52 54
16 15 15 15 16 16 17 19 20 20 19 19 19 20 22 24 24 25 26 27 26 26 25 26 28 30 31 32 33 33 34 35 36 37 38 39 41 42 44 46 48 50 52 55
16 15 16 16 17 18 19 20 22 23 22 21 21 22 23 25 26 26 27 27 26 25 25 26 27 29 30 31 31 32 33 34 35 36 37 39 40 42 43 45 47 49 51 53
17 17 17 18 19 20 21 22 23 25 25 24 23 23 25 26 26 26 26 26 25 25 25 26 27 28 30 31 32 32 33 34 36 37 39 41 42 44 45 47 49 51 52 54
19 19 19 20 21 22 24 24 26 27 28 27 25 23 25 26 26 25 25 25 25 25 26 27 28 29 30 31 32 33 35 36 38 39 41 43 44 46 47 49 50 51 53 54
22 21 20 21 22 24 25 27 28 28 28 29 27 23 25 25 25 25 24 25 26 27 28 29 30 30 31 33 34 36 38 40 41 43 44 46 48 50 51 52 53 54 55 56
24 23 22 23 25 26 27 28 28 28 28 28 27 22 23 24 25 25 26 27 29 30 30 31 32 33 35 37 38 40 42 44 46 47 49 51 52 54 55 56 57 58 59 59
25 25 25 25 27 28 29 28 29 29 29 27 26 22 24 25 27 28 28 29 31 32 33 34 35 37 39 41 43 45 47 49 51 53 54 56 57 58 59 60 61 62 63 63
28 28 28 28 29 30 29 28 29 30 29 28 25 23 23 27 28 29 30 31 33 35 36 38 40 42 44 46 48 50 52 54 56 58 59 61 62 63 63 64 65 65 66 67
30 30 30 30 31 31 29 28 29 31 30 31 26 26 26 28 29 31 33 34 36 38 41 43 45 47 49 51 53 55 57 59 61 63 64 66 67 67 68 68 68 69 69 69
32 33 32 31 31 31 29 28 30 30 30 30 29 28 29 30 32 34 36 38 40 42 45 47 49 52 54 56 59 61 62 64 66 68 69 70 71 71 71 71 71 71 70 70
33 34 34 32 30 32 30 30 30 30 30 31 31 31 32 32 34 37 39 41 44 47 49 51 54 56 59 62 64 66 68 69 71 72 73 74 75 74 74 73 73 72 71 70
34 34 35 34 32 31 31 30 30 30 31 32 32 33 34 36 38 40 43 46 48 51 53 56 59 61 64 66 69 71 72 74 75 76 77 77 77 76 75 74 73 72 71 69
33 34 35 35 33 30 29 30 31 32 32 33 34 35 37 39 42 44 47 50 52 55 58 61 64 66 69 71 73 74 76 77 78 79 79 78 78 77 75 73 72 70 69 68
33 34 35 35 34 31 31 33 33 34 35 35 36 38 41 43 46 48 50 53 56 59 62 65 68 70 72 74 76 77 78 79 80 80 79 79 77 76 74 72 70 69 67 65
33 34 35 35 36 34 34 36 36 36 38 38 39 42 45 48 51 53 55 58 61 64 67 69 72 73 75 77 78 79 80 80 81 80 78 76 75 73 71 69 67 65 63 61
32 34 34 35 37 37 37 38 38 39 40 42 45 47 50 52 54 56 59 62 65 68 70 72 74 75 77 78 80 80 80 80 79 78 75 72 70 68 66 64 62 60 59 57
33 34 35 36 37 39 40 40 41 42 45 47 49 51 53 56 58 61 63 66 69 71 73 74 76 77 78 79 80 80 79 78 76 73 70 67 65 63 61 60 58 56 54 53
33 34 36 38 38 41 42 43 44 46 49 51 53 55 57 60 62 65 67 69 71 73 75 76 77 78 77 77 77 77 76 74 71 68 65 62 60 58 56 55 54 52 51 50
33 37 39 40 40 42 44 46 48 50 51 53 55 58 61 64 66 68 70 72 73 75 76 77 78 78 77 76 74 73 71 68 65 62 60 57 56 54 53 51 50 48 47 48
35 39 41 41 42 44 46 48 50 52 54 56 59 62 64 67 68 70 72 73 74 75 76 77 76 76 74 72 70 67 65 63 61 58 55 53 52 50 48 46 45 45 45 44
Wind_Direction
265 266 267 269 271 274 277 280 281 285 288 289 287 286 286 288 290 291 291 291 292 291 290 288 287 287 286 286 285 283 281 279 278 277 275 273 272 271 270 270 269 269 269 269
263 265 268 271 272 274 275 276 280 286 290 293 292 293 294 294 295 295 295 295 295 295 293 292 291 290 289 288 286 284 282 281 279 278 278 277 275 274 273 272 271 270 269 269
259 263 267 270 272 273 275 277 281 287 293 296 295 295 297 297 296 295 295 295 294 293 293 294 293 292 291 289 287 285 283 282 280 280 280 279 278 277 275 274 273 273 274 274
256 259 262 266 269 272 277 282 286 289 290 292 295 296 297 297 294 292 291 291 291 292 293 293 293 292 292 290 289 287 285 284 283 282 281 281 280 279 278 278 277 277 276 276
253 257 261 264 268 273 278 284 288 290 291 291 293 296 298 296 292 291 290 289 291 293 294 294 294 294 293 291 290 289 288 287 286 286 285 284 283 282 281 280 279 278 278 277
253 257 262 266 271 277 281 285 288 290 292 293 293 294 294 294 294 294 294 295 296 296 297 296 296 295 294 294 293 292 292 291 290 289 288 287 286 285 284 282 281 280 280 279
253 257 261 267 273 278 283 287 290 291 293 294 295 294 293 294 296 297 299 301 302 301 300 299 298 297 297 297 297 297 296 295 295 294 293 292 290 289 288 286 285 284 282 281
255 258 263 269 273 279 282 286 290 293 295 296 297 297 296 296 297 298 299 301 302 302 302 301 301 300 300 301 301 300 300 299 299 298 297 296 295 293 292 290 289 287 286 284
256 259 264 269 274 278 282 285 289 292 294 295 295 296 294 294 295 297 299 301 303 304 304 303 303 303 303 303 303 303 302 302 302 301 300 299 298 297 295 294 292 290 288 287
259 260 263 269 274 279 283 287 290 292 294 296 296 298 297 297 298 300 301 303 304 304 305 305 305 304 304 303 303 303 303 303 303 302 301 300 299 298 297 295 294 292 291 289
260 263 265 270 274 279 283 287 289 290 292 294 297 301 298 299 300 300 301 302 303 303 304 305 305 304 304 304 304 303 303 303 303 302 301 300 299 298 297 296 294 293 292 291
263 267 269 272 275 278 281 284 286 288 290 292 294 300 296 296 296 298 300 302 302 302 303 304 304 303 304 304 304 303 303 303 302 302 301 300 299 298 297 296 295 293 292 291
265 269 272 273 275 277 280 282 283 284 285 287 290 296 293 292 294 297 300 301 301 302 302 302 302 303 303 303 303 303 303 303 302 302 301 300 299 298 297 296 295 294 293 291
267 270 273 276 277 279 279 281 282 283 285 286 289 289 288 289 293 297 298 299 299 300 300 301 302 302 303 303 303 303 303 302 302 301 300 300 299 298 297 296 295 294 292 291
268 271 274 276 277 278 279 280 281 283 285 287 289 288 289 290 294 295 296 298 299 299 300 301 302 303 303 303 303 303 302 301 301 301 301 300 300 299 298 297 296 294 293 292
269 273 275 275 275 276 278 279 279 280 282 285 287 289 290 293 294 294 295 297 298 299 300 302 302 303 303 302 302 302 302 302 301 301 301 300 300 299 298 297 296 294 293 292
270 273 274 273 273 275 278 278 277 277 279 283 287 289 291 292 293 294 295 297 298 299 301 301 302 302 303 303 303 303 303 302 302 301 301 301 300 299 299 297 296 295 293 292
269 271 272 273 272 274 278 276 275 277 281 284 286 289 291 293 294 296 297 298 299 300 301 302 303 303 303 304 303 303 303 303 302 302 302 302 301 300 299 298 296 294 293 292
268 269 271 273 274 274 274 276 278 281 283 286 289 291 293 294 295 297 297 299 300 301 302 303 303 304 304 304 304 304 304 304 303 303 303 302 301 300 299 297 295 294 292 291
267 269 271 273 275 276 277 277 280 283 285 287 289 292 293 294 296 297 298 300 301 302 303 303 304 305 305 305 305 305 305 304 304 304 303 303 301 300 299 297 296 294 293 292
265 266 269 272 274 277 278 281 283 285 288 290 292 293 294 296 297 299 300 301 302 303 304 304 305 305 305 305 305 306 306 305 305 305 304 304 302 301 300 298 297 295 294 293
262 264 268 271 274 278 279 282 284 287 289 291 292 294 295 297 299 301 302 303 303 304 304 305 305 306 306 306 306 306 306 306 306 305 305 304 303 301 300 299 297 296 295 294
262 265 268 271 274 278 280 283 286 288 290 292 294 296 298 299 301 302 303 303 303 304 304 305 306 307 307 307 307 307 307 307 307 306 306 305 303 302 301 300 299 298 296 296
264 266 269 271 274 278 281 285 288 290 292 294 296 298 299 300 301 302 302 303 304 304 305 306 306 307 307 307 308 308 308 308 308 307 307 306 305 303 302 300 300 299 298 297
266 267 269 272 276 279 283 287 289 292 294 296 297 298 299 300 301 302 302 303 304 305 305 306 307 307 308 308 309 309 308 308 309 309 308 307 306 304 303 302 301 300 299 299
268 268 271 274 278 282 285 287 289 292 293 295 296 297 299 300 301 302 302 303 304 305 306 307 308 308 309 309 309 309 309 309 310 310 309 308 307 306 305 303 302 302 301 301
Height
5837 5838 5837 5837 5837 5836 5835 5835 5834 5832 5831 5830 5829 5828 5827 5825 5824 5822 5821 5819 5818 5817 5815 5813 5811 5809 5807 5805 5803 5801 5799 5797 5795 5794 5792 5791 5791 5790 5788 5787 5785 5782 5780 5777
5833 5833 5832 5832 5832 5832 5831 5830 5829 5828 5826 5826 5824 5823 5822 5821 5819 5817 5816 5814 5813 5811 5809 5807 5805 5803 5801 5799 5797 5795 5793 5790 5788 5786 5784 5782 5781 5780 5778 5776 5774 5771 5769 5766
5828 5829 5828 5828 5827 5827 5826 5826 5825 5825 5823 5821 5820 5819 5818 5816 5814 5812 5811 5809 5807 5805 5803 5801 5799 5797 5794 5792 5790 5787 5785 5783 5780 5778 5776 5773 5771 5769 5767 5764 5762 5760 5757 5755
5824 5824 5824 5824 5823 5823 5822 5821 5821 5820 5819 5818 5817 5814 5813 5812 5810 5808 5806 5804 5801 5799 5797 5794 5792 5790 5787 5784 5782 5779 5777 5774 5771 5769 5766 5764 5761 5759 5756 5754 5751 5748 5746 5743
5820 5820 5820 5820 5819 5819 5818 5817 5816 5816 5815 5814 5812 5810 5808 5806 5804 5802 5800 5798 5795 5793 5790 5787 5784 5782 5778 5775 5773 5770 5767 5765 5762 5760 5757 5754 5751 5749 5746 5743 5740 5736 5733 5730
5815 5816 5815 5815 5815 5814 5813 5812 5812 5811 5810 5809 5807 5805 5802 5799 5797 5795 5793 5791 5788 5786 5783 5780 5777 5773 5769 5766 5764 5761 5758 5755 5753 5750 5747 5744 5740 5737 5734 5731 5727 5724 5721 5717
5811 5812 5811 5811 5810 5809 5809 5808 5806 5805 5804 5804 5801 5799 5797 5793 5791 5788 5785 5783 5780 5778 5775 5772 5768 5765 5761 5758 5755 5752 5749 5746 5742 5739 5736 5732 5729 5725 5722 5718 5715 5711 5707 5703
5806 5807 5807 5806 5805 5804 5803 5802 5801 5799 5798 5797 5795 5792 5791 5787 5784 5781 5779 5776 5773 5770 5767 5764 5760 5757 5753 5750 5747 5743 5740 5736 5733 5729 5725 5721 5717 5714 5710 5705 5701 5697 5693 5688
5801 5802 5802 5801 5800 5799 5798 5796 5795 5793 5790 5789 5788 5786 5784 5780 5777 5774 5772 5769 5766 5763 5760 5756 5753 5749 5746 5742 5738 5735 5731 5727 5723 5719 5715 5710 5706 5702 5697 5693 5688 5683 5678 5673
5796 5797 5797 5796 5794 5793 5791 5790 5789 5786 5783 5781 5781 5779 5776 5772 5770 5767 5764 5761 5758 5756 5752 5749 5746 5742 5738 5734 5730 5726 5722 5718 5714 5709 5705 5700 5694 5689 5684 5679 5674 5668 5663 5658
5790 5791 5791 5790 5788 5787 5785 5784 5781 5779 5777 5774 5772 5775 5769 5765 5762 5760 5758 5755 5752 5749 5745 5741 5738 5734 5729 5726 5722 5717 5713 5708 5704 5699 5693 5688 5682 5677 5671 5665 5660 5654 5648 5642
5782 5783 5784 5783 5782 5780 5778 5777 5774 5773 5770 5767 5765 5769 5762 5759 5755 5753 5751 5748 5744 5741 5737 5733 5729 5725 5721 5717 5712 5707 5702 5697 5692 5687 5681 5675 5669 5663 5657 5651 5644 5638 5632 5626
5775 5776 5776 5776 5776 5773 5771 5769 5767 5765 5763 5760 5759 5762 5755 5752 5748 5746 5743 5740 5736 5732 5729 5724 5720 5716 5712 5707 5702 5697 5691 5685 5680 5674 5668 5661 5655 5648 5642 5635 5628 5621 5615 5608
5768 5768 5769 5768 5766 5764 5763 5762 5759 5756 5754 5753 5752 5752 5749 5744 5741 5739 5736 5732 5728 5724 5720 5715 5711 5706 5701 5696 5690 5685 5679 5673 5666 5660 5653 5646 5639 5632 5625 5618 5611 5604 5596 5590
5759 5760 5759 5759 5757 5755 5754 5754 5751 5748 5746 5744 5745 5742 5741 5737 5734 5731 5727 5723 5719 5714 5710 5705 5700 5695 5689 5684 5678 5672 5665 5658 5651 5644 5637 5630 5622 5614 5607 5599 5592 5584 5577 5569
5751 5751 5750 5750 5749 5746 5746 5746 5743 5741 5738 5736 5735 5734 5732 5729 5726 5722 5718 5714 5709 5704 5699 5694 5688 5682 5677 5670 5664 5657 5650 5643 5635 5627 5619 5611 5604 5596 5587 5579 5572 5564 5556 5549
5743 5742 5741 5741 5740 5738 5739 5738 5735 5733 5731 5729 5727 5726 5723 5720 5716 5712 5708 5703 5698 5693 5687 5682 5676 5669 5663 5656 5648 5641 5633 5625 5617 5608 5600 5592 5583 5575 5567 5559 5550 5542 5535 5528
5734 5733 5731 5731 5732 5731 5732 5728 5726 5724 5723 5721 5719 5717 5714 5710 5706 5701 5696 5691 5686 5680 5674 5668 5661 5654 5647 5639 5632 5624 5615 5606 5598 5589 5580 5570 5562 5554 5546 5537 5529 5521 5513 5506
5725 5724 5722 5721 5721 5722 5722 5719 5717 5715 5714 5712 5709 5707 5703 5699 5695 5690 5684 5679 5673 5667 5660 5653 5646 5638 5630 5622 5613 5605 5596 5587 5577 5568 5559 5549 5540 5532 5524 5515 5507 5499 5492 5485
5715 5714 5713 5712 5710 5712 5713 5710 5707 5707 5705 5703 5700 5696 5692 5687 5683 5680 5673 5666 5660 5653 5645 5638 5629 5621 5612 5603 5594 5586 5577 5567 5557 5548 5538 5528 5518 5509 5501 5493 5485 5478 5471 5465
5706 5704 5704 5702 5700 5702 5702 5700 5698 5698 5695 5692 5688 5684 5680 5675 5670 5665 5658 5651 5644 5637 5629 5620 5612 5603 5594 5584 5575 5566 5556 5546 5536 5527 5517 5508 5497 5488 5479 5472 5464 5457 5451 5445
5696 5695 5695 5693 5691 5693 5690 5689 5688 5686 5682 5679 5675 5671 5666 5661 5655 5649 5642 5635 5627 5620 5612 5603 5595 5586 5575 5564 5555 5546 5536 5526 5517 5507 5498 5488 5478 5468 5459 5452 5445 5438 5432 5427
5687 5687 5685 5685 5684 5680 5679 5677 5675 5673 5669 5665 5661 5657 5652 5646 5640 5634 5627 5619 5611 5603 5594 5585 5577 5568 5557 5545 5534 5524 5516 5506 5497 5488 5478 5469 5460 5451 5442 5434 5428 5422 5415 5410
5677 5676 5675 5674 5673 5669 5667 5665 5663 5659 5655 5651 5646 5642 5636 5631 5625 5618 5611 5603 5594 5585 5576 5567 5558 5550 5540 5529 5517 5505 5495 5486 5478 5470 5461 5452 5443 5436 5428 5419 5412 5406 5401 5395
5667 5665 5663 5662 5661 5658 5656 5653 5650 5646 5642 5637 5632 5627 5621 5615 5609 5602 5594 5585 5577 5568 5559 5549 5540 5531 5521 5510 5500 5488 5477 5468 5461 5453 5445 5436 5428 5420 5413 5406 5399 5393 5388 5381
5655 5653 5652 5652 5651 5648 5645 5641 5638 5634 5629 5624 5619 5614 5606 5599 5593 5585 5577 5568 5559 5550 5541 5531 5522 5512 5502 5492 5483 5472 5462 5453 5445 5438 5430 5422 5414 5407 5400 5393 5388 5382 5375 5370